User: anonymous   Login
Location: Unspecified
(0.0000°N, 0.0000°E)
Time: 10:22:11
(UTC+00:00)
Language:

CHUBUSAT 2 - Orbit

View from above orbital plane
View from above orbital plane
View from above satellite
View from above satellite

Ground track
Ground track

The orbit data is extracted from the following two-line orbital elements,

1 41338U 16012B   21340.81436284  .00000601  00000-0  39601-4 0  9995
2 41338  31.0014 169.7484 0013516  41.5593 318.6069 15.00717002318516
Epoch (UTC): 06 December 2021 19:32:40
Eccentricity: 0.0013516
inclination: 31.0014°
perigee height: 555 km
apogee height: 574 km
right ascension of ascending node: 169.7484°
argument of perigee: 41.5593°
revolutions per day: 15.00717002
mean anomaly at epoch: 318.6069°
orbit number at epoch: 31851

The dashed part of the orbit path shows where the satellite is in the earth's shadow,  

DLR